This is the latest recevied weather packets stored in our database for station/object 4S6DRJ-13. If no packets are shown the sender has not sent any weather packets the latest 1 day(s).
| Time | Temp. | Humidity | Pressure | Rain* | Wind** | Luminosity | Snow |
|---|---|---|---|---|---|---|---|
| 1778151394 | 30.56° C | 72% | 1002.7 hPa | 0 mm | 1.34 m/s, 154° | 69 W/m² | - |
| 1778151272 | 30.56° C | 71% | 1002.7 hPa | 0 mm | 1.34 m/s, 242° | 67 W/m² | - |
| 1778150967 | 30.56° C | 73% | 1002.6 hPa | 0 mm | 0.45 m/s, 278° | 69 W/m² | - |
| 1778150846 | 30.56° C | 73% | 1002.7 hPa | 0 mm | 0.89 m/s, 209° | 74 W/m² | - |
| 1778150662 | 30.56° C | 73% | 1002.7 hPa | 0 mm | 0 m/s | 81 W/m² | - |
| 1778150479 | 30.56° C | 72% | 1002.6 hPa | 0 mm | 1.79 m/s, 119° | 91 W/m² | - |
| 1778150235 | 30.56° C | 72% | 1002.6 hPa | 0 mm | 0.89 m/s, 205° | 102 W/m² | - |
| 1778150114 | 30.56° C | 72% | 1002.3 hPa | 0 mm | 1.34 m/s, 289° | 108 W/m² | - |
| 1778150052 | 30.56° C | 72% | 1002.4 hPa | 0 mm | 0.89 m/s, 255° | 110 W/m² | - |
| 1778149991 | 30.56° C | 72% | 1002.3 hPa | 0 mm | 0.45 m/s, 283° | 114 W/m² | - |
| 1778149930 | 30.56° C | 72% | 1002.4 hPa | 0 mm | 0.89 m/s, 257° | 117 W/m² | - |
| 1778149869 | 30.56° C | 72% | 1002.3 hPa | 0 mm | 1.79 m/s, 301° | 122 W/m² | - |
| 1778149747 | 30.56° C | 71% | 1002.4 hPa | 0 mm | 0.89 m/s, 348° | 131 W/m² | - |
| 1778149686 | 30.56° C | 71% | 1002.4 hPa | 0 mm | 0.45 m/s, 322° | 134 W/m² | - |
| 1778149565 | 30.56° C | 71% | 1002.3 hPa | 0 mm | 2.24 m/s, 11° | 145 W/m² | - |
| 1778149443 | 30.56° C | 72% | 1002.2 hPa | 0 mm | 1.79 m/s, 309° | 156 W/m² | - |
| 1778149382 | 30.56° C | 72% | 1002.1 hPa | 0 mm | 1.34 m/s, 293° | 159 W/m² | - |
| 1778149321 | 30.56° C | 73% | 1002.1 hPa | 0 mm | 0.89 m/s, 299° | 164 W/m² | - |
| 1778149199 | 30.56° C | 72% | 1002 hPa | 0 mm | 0.89 m/s, 240° | 174 W/m² | - |
| 1778149138 | 30.56° C | 72% | 1002 hPa | 0 mm | 1.79 m/s, 236° | 181 W/m² | - |
| 1778149077 | 30.56° C | 72% | 1002.1 hPa | 0 mm | 1.34 m/s, 316° | 183 W/m² | - |
| 1778148955 | 30.56° C | 72% | 1002 hPa | 0 mm | 1.79 m/s, 302° | 193 W/m² | - |
| 1778148711 | 30.56° C | 73% | 1002 hPa | 0 mm | 3.58 m/s, 233° | 212 W/m² | - |
| 1778148528 | 30.56° C | 73% | 1002.1 hPa | 0 mm | 1.79 m/s, 3° | 227 W/m² | - |
| 1778148284 | 31.11° C | 73% | 1002 hPa | 0 mm | 1.79 m/s, 235° | 248 W/m² | - |
* Rain latest hour (hover to see other rain measurements)
** Current wind speed in m/s (hover to see current wind gust speed)